Essex, Connecticut, United States (06426)
Lat: 41.35N, Lon: 72.39W
Wx Zone: CTZ011
Local Info
Past Weather Observations for Today

NOTE: This archive is for the closest National Weather Service station to Essex. Information may differ from the station used for current weather conditions.

Click here for Long-term Archive

Time Weather Temperature Dewpoint Humidity Pressure Winds Precip Visibility
19:56
Overcast
Light Rain
50°F / 10°C 50°F / 10°C 100% 29.71 in
(1006 mb)
SE 17.3 mph
(SE 28 kph)
0.00 in
(0.00 mm)
3SM
19:28
Overcast
Light Rain
52°F / 11°C 50°F / 10°C 94% 29.71 in
(1006 mb)
SE 18.4 mph
(SE 30 kph)
0.00 in
(0.00 mm)
3SM
19:03
Overcast
Fog And Mist
50°F / 10°C 50°F / 10°C 100% 29.68 in
(1005 mb)
SE 18.4 mph
(SE 30 kph)
- 3SM
18:56
Overcast
Fog And Mist
50°F / 10°C 50°F / 10°C 100% 29.68 in
(1005 mb)
SE 21.9 mph
(SE 35 kph)
0.03 in
(0.76 mm)
2SM
18:44
Overcast
Light Rain
52°F / 11°C 50°F / 10°C 94% 29.71 in
(1006 mb)
SE 23 mph
(SE 37 kph)
0.03 in
(0.76 mm)
3SM
17:56
Overcast
Light Rain
50°F / 10°C 48°F / 9°C 94% 29.74 in
(1007 mb)
SE 18.4 mph
(SE 30 kph)
0.02 in
(0.51 mm)
1 1/2SM
17:46
Overcast
Light Rain
50°F / 10°C 48°F / 9°C 94% 29.74 in
(1007 mb)
SSE 23 mph
(SSE 37 kph)
0.00 in
(0.00 mm)
1 3/4SM
17:21
Overcast
Light Rain
50°F / 10°C 48°F / 9°C 94% 29.74 in
(1007 mb)
SSE 23 mph
(SSE 37 kph)
0.00 in
(0.00 mm)
2 1/2SM
16:56
Overcast
Light Rain
50°F / 10°C 48°F / 9°C 94% 29.74 in
(1007 mb)
SE 27.6 mph
(SE 44 kph)
0.00 in
(0.00 mm)
1 1/2SM
16:39
Overcast
Light Rain
52°F / 11°C 48°F / 9°C 88% 29.74 in
(1007 mb)
SE 28.8 mph
(SE 46 kph)
0.00 in
(0.00 mm)
1 1/2SM
16:28
Overcast
Light Rain
52°F / 11°C 48°F / 9°C 88% 29.74 in
(1007 mb)
SE 27.6 mph
(SE 44 kph)
0.00 in
(0.00 mm)
2SM
16:13
Overcast
Light Rain
52°F / 11°C 48°F / 9°C 88% 29.74 in
(1007 mb)
SE 27.6 mph
(SE 44 kph)
0.00 in
(0.00 mm)
1 1/2SM
15:56
Overcast
Light Rain
52°F / 11°C 50°F / 10°C 94% 29.74 in
(1007 mb)
SE 29.9 mph
(SE 48 kph)
0.00 in
(0.00 mm)
2SM
15:18
Overcast
Light Rain
50°F / 10°C 48°F / 9°C 94% 29.77 in
(1008 mb)
ESE 17.3 mph
(ESE 28 kph)
0.00 in
(0.00 mm)
2SM
14:58
Overcast
Light Rain
50°F / 10°C 48°F / 9°C 94% 29.77 in
(1008 mb)
E 21.9 mph
(E 35 kph)
0.00 in
(0.00 mm)
2 1/2SM
14:56
Overcast
Fog And Mist
50°F / 10°C 48°F / 9°C 94% 29.77 in
(1008 mb)
E 19.6 mph
(E 32 kph)
0.01 in
(0.25 mm)
3SM
14:14
Overcast
Light Rain
50°F / 10°C 48°F / 9°C 94% 29.8 in
(1009 mb)
E 24.2 mph
(E 39 kph)
0.01 in
(0.25 mm)
7SM
14:06
Overcast
Light Rain
50°F / 10°C 48°F / 9°C 94% 29.8 in
(1009 mb)
E 26.5 mph
(E 43 kph)
0.01 in
(0.25 mm)
2SM
13:59
Overcast
Heavy Rain
50°F / 10°C 48°F / 9°C 94% 29.83 in
(1010 mb)
E 21.9 mph
(E 35 kph)
0.01 in
(0.25 mm)
1SM
13:56
Overcast
Heavy Rain
50°F / 10°C 48°F / 9°C 94% 29.83 in
(1010 mb)
E 21.9 mph
(E 35 kph)
0.11 in
(2.79 mm)
2SM
13:31
Overcast
Rain
48°F / 9°C 48°F / 9°C 100% 29.83 in
(1010 mb)
E 24.2 mph
(E 39 kph)
0.06 in
(1.52 mm)
2SM
13:14
Overcast
Light Rain
48°F / 9°C 46°F / 8°C 94% 29.86 in
(1011 mb)
E 24.2 mph
(E 39 kph)
0.01 in
(0.25 mm)
2SM
12:56
Overcast
Rain
48°F / 9°C 46°F / 8°C 94% 29.89 in
(1012 mb)
E 21.9 mph
(E 35 kph)
0.07 in
(1.78 mm)
1 1/2SM
12:37
Overcast
Light Rain
48°F / 9°C 46°F / 8°C 94% 29.86 in
(1011 mb)
E 24.2 mph
(E 39 kph)
0.03 in
(0.76 mm)
1 3/4SM
12:20
Overcast
Rain
46°F / 8°C 45°F / 7°C 93% 29.89 in
(1012 mb)
E 23 mph
(E 37 kph)
0.01 in
(0.25 mm)
1 3/4SM
11:56
Overcast
Light Rain
46°F / 8°C 43°F / 6°C 87% 29.92 in
(1013 mb)
E 25.3 mph
(E 41 kph)
0.01 in
(0.25 mm)
5SM
11:49
Overcast
Light Rain
46°F / 8°C 43°F / 6°C 87% 29.92 in
(1013 mb)
E 24.2 mph
(E 39 kph)
0.01 in
(0.25 mm)
5SM
11:32
Overcast
Rain
46°F / 8°C 43°F / 6°C 87% 29.92 in
(1013 mb)
E 26.5 mph
(E 43 kph)
0.01 in
(0.25 mm)
4SM
10:56
Overcast
Rain
46°F / 8°C 43°F / 6°C 87% 29.95 in
(1014 mb)
E 28.8 mph
(E 46 kph)
0.03 in
(0.76 mm)
4SM
09:56
Overcast
Rain
46°F / 8°C 43°F / 6°C 87% 29.98 in
(1015 mb)
E 23 mph
(E 37 kph)
0.01 in
(0.25 mm)
4SM
08:56
Overcast
48°F / 9°C 41°F / 5°C 76% 30.01 in
(1016 mb)
E 25.3 mph
(E 41 kph)
- 10SM
07:56
Overcast
48°F / 9°C 39°F / 4°C 71% 30.04 in
(1017 mb)
E 21.9 mph
(E 35 kph)
- 10SM
06:56
Mostly Cloudy
46°F / 8°C 41°F / 5°C 82% 30.06 in
(1018 mb)
E 21.9 mph
(E 35 kph)
- 10SM
05:56
Partly Cloudy
45°F / 7°C 39°F / 4°C 81% 30.09 in
(1019 mb)
E 15 mph
(E 24 kph)
0.00 in
(0.00 mm)
10SM
04:56
Overcast
45°F / 7°C 39°F / 4°C 81% 30.09 in
(1019 mb)
ENE 19.6 mph
(ENE 32 kph)
- 10SM
03:56
Partly Cloudy
45°F / 7°C 37°F / 3°C 76% 30.15 in
(1021 mb)
ENE 9.2 mph
(ENE 15 kph)
- 10SM
02:56
Clear
45°F / 7°C 37°F / 3°C 76% 30.15 in
(1021 mb)
E 10.4 mph
(E 17 kph)
- 10SM
01:56
Clear
43°F / 6°C 37°F / 3°C 81% 30.18 in
(1022 mb)
E 10.4 mph
(E 17 kph)
- 10SM
00:56
Clear
43°F / 6°C 37°F / 3°C 81% 30.18 in
(1022 mb)
E 9.2 mph
(E 15 kph)
- 10SM
Time Weather Temperature Dewpoint Humidity Pressure Winds Precip Visibility


Weather for websites

WeatherForYou.com, LLC is not responsible for any damages or problems caused by this service. Current weather conditions are obtained from the closest station including government and personal stations which may have varying degrees of accuracy. Weather forecasts are derived from the NOAA NDFD. Like all things, this site belongs to Jesus Christ... He just trusts me to maintain it. If you have any questions or comments email webmaster@weatherforyou.com

Copyright © 2015, WeatherForYou.com LLC. All rights reserved.